EHI
13 6 1 0 0 0 0 0 0 0 1 2 2 1 0 0 1 1 5 21 42 49 39 42 53 48 30 15 6 1 0 0 1 1 1 0 0 0 0 0 0 0 0 0 0 0 0 0 0
5 3 0 0 0 0 0 0 0 1 3 5 4 2 1 2 4 5 10 29 53 56 45 44 53 49 33 17 6 1 0 0 0 0 0 0 0 0 0 0 0 0 0 0 0 0 0 0 0
0 0 0 0 0 0 0 0 0 1 4 7 7 4 2 5 11 16 24 45 63 61 49 49 54 48 33 18 6 0 0 0 0 0 0 0 0 0 0 0 0 0 0 0 0 0 0 0 0
0 0 0 0 0 0 0 0 1 2 6 10 10 5 3 12 26 37 45 59 68 60 48 50 53 44 31 19 8 2 0 0 0 0 0 0 0 0 0 0 0 0 0 0 0 0 0 0 0
0 0 0 0 0 0 0 0 1 6 13 19 16 7 7 26 49 58 58 64 68 59 48 47 49 41 30 22 13 4 0 0 0 0 0 0 0 0 0 0 0 0 0 0 0 0 0 0 0
0 0 0 0 0 0 0 0 2 10 22 30 26 15 15 40 63 65 61 64 65 59 49 43 42 38 30 23 16 8 1 0 0 0 0 0 0 0 0 0 0 0 0 0 0 0 0 0 0
0 0 0 0 0 0 0 1 5 12 25 38 40 28 26 46 63 63 61 63 61 56 49 40 35 33 28 23 18 11 4 1 1 0 0 0 0 0 0 0 0 0 0 0 0 0 0 0 0
0 0 0 0 0 0 1 4 9 15 26 40 45 39 38 53 65 64 62 62 60 54 45 36 31 29 25 21 18 13 7 4 2 1 0 0 0 0 0 0 0 0 0 0 0 0 0 0 0
0 0 0 0 0 1 3 7 11 20 32 41 46 47 52 66 75 72 68 66 63 57 44 34 30 27 24 21 19 15 10 5 3 2 1 0 0 0 0 0 0 0 0 0 0 0 0 0 0
0 0 0 0 0 1 3 6 12 24 35 41 49 57 65 76 83 81 75 71 69 61 48 35 29 25 22 20 19 15 10 5 3 2 1 0 0 0 0 0 0 0 0 0 0 0 0 0 0
0 0 0 0 0 1 3 6 12 22 28 36 50 63 71 78 83 83 78 73 69 61 51 39 30 24 20 18 17 13 8 5 3 1 0 0 0 0 0 0 0 0 0 0 0 0 0 0 0
0 0 0 0 1 2 4 7 12 16 21 31 49 62 69 72 73 75 75 71 66 59 50 42 33 24 18 15 14 11 8 5 3 1 0 0 0 0 0 0 0 0 0 0 0 0 0 0 0
0 0 0 0 1 3 4 6 10 14 21 35 51 61 64 64 63 66 72 73 67 58 48 40 32 24 17 13 11 10 7 4 2 0 0 0 0 0 0 0 0 0 0 0 0 0 0 0 0
0 0 0 0 1 3 3 3 7 14 26 41 51 56 56 55 56 61 71 75 69 60 49 37 31 26 18 12 10 9 6 2 0 0 0 0 1 1 0 0 0 0 0 0 0 0 0 0 0
0 0 0 0 0 1 1 1 4 13 27 41 48 49 48 46 49 58 69 73 69 63 54 42 34 27 19 13 10 7 3 1 0 0 1 1 2 1 0 0 0 0 0 0 0 0 0 0 0
0 0 0 0 0 0 0 0 3 12 26 38 44 46 44 42 45 55 66 70 68 66 62 53 42 31 22 16 12 8 4 2 1 1 2 2 2 1 0 0 0 0 0 0 0 0 0 0 0
0 0 0 0 0 0 0 1 4 14 26 36 44 48 47 46 48 55 64 68 69 69 67 60 50 38 28 21 16 12 8 4 3 3 3 2 1 0 0 0 0 0 0 0 0 0 0 0 0
0 0 0 0 0 0 0 1 5 13 25 36 46 52 53 52 53 58 63 67 69 69 65 59 49 41 32 26 21 16 10 7 5 4 2 1 1 0 0 0 0 0 0 0 0 0 0 0 0
0 0 0 0 0 0 0 1 4 11 22 34 45 53 55 53 55 60 64 66 68 66 60 53 46 39 32 27 23 17 11 8 5 3 1 0 0 0 0 0 0 0 0 0 0 0 0 0 0
0 0 0 0 0 0 0 0 3 10 18 28 39 48 53 53 56 62 67 68 68 64 57 50 44 37 30 26 21 16 10 7 4 1 0 0 0 0 0 0 0 0 0 0 0 0 0 0 0
0 0 0 0 0 0 0 0 1 6 13 22 30 39 46 50 55 62 67 68 64 59 53 47 40 34 28 24 20 14 9 6 2 0 0 0 0 0 0 0 0 0 0 0 0 0 0 0 0
0 0 0 0 0 0 0 0 1 3 9 15 22 30 36 42 50 58 63 63 58 52 46 40 35 31 27 23 18 14 9 5 2 0 0 0 0 1 2 1 0 0 0 0 0 0 0 0 0
0 0 0 0 0 0 0 0 1 3 6 10 16 22 27 34 45 55 58 56 52 47 40 34 32 30 27 21 16 12 8 4 1 1 1 0 0 1 3 2 1 0 0 0 0 0 0 0 0
0 0 0 0 0 0 0 0 1 2 4 8 12 17 22 31 42 50 52 49 46 42 35 30 28 26 24 20 15 11 6 2 0 1 1 0 0 0 2 2 1 0 0 0 0 0 0 0 0
0 0 0 0 0 0 0 0 0 1 4 7 10 13 19 27 37 44 45 43 40 36 32 27 24 22 21 19 15 10 5 2 0 0 0 0 0 0 1 2 2 1 0 1 1 1 0 0 0
0 0 0 0 0 0 0 0 1 2 5 8 9 11 17 23 29 35 37 37 36 34 29 26 23 21 19 18 15 11 6 2 1 0 0 0 0 0 1 2 2 1 0 1 2 2 1 1 1
0 0 0 0 0 0 0 0 1 3 6 8 9 12 15 17 21 25 30 32 33 31 26 23 23 22 19 17 15 11 7 4 1 0 0 0 0 0 0 1 1 1 1 2 3 3 3 2 2
0 0 0 0 0 0 0 0 1 3 6 9 12 13 13 14 18 22 26 27 27 25 22 19 20 20 18 16 14 12 8 5 1 0 0 0 0 0 0 1 2 3 3 4 4 4 3 3 3
0 0 0 0 0 0 0 0 2 4 8 11 13 12 12 14 17 21 23 21 20 20 18 16 16 17 17 15 14 11 7 4 1 0 0 0 0 0 0 1 3 4 5 6 6 5 4 3 2
0 0 0 0 0 0 0 1 3 7 10 13 13 12 12 15 18 20 20 18 18 18 17 15 15 16 16 14 12 10 6 2 1 0 0 0 0 0 0 1 3 5 6 6 6 6 4 2 1
Wind_Speed
7 5 2 1 3 4 3 4 2 3 4 5 9 9 8 5 4 4 5 16 18 16 13 16 18 19 18 18 18 17 17 16 16 15 15 16 16 16 16 15 15 15 15 15 14 14 14 14 15
3 4 1 3 5 3 5 3 2 4 8 11 10 10 8 7 8 10 9 15 19 16 12 14 19 19 19 18 18 17 17 16 16 15 15 15 15 15 15 15 15 15 15 14 14 13 13 14 14
3 1 2 3 2 2 5 4 2 5 10 10 7 6 6 5 8 7 11 18 16 13 11 15 21 19 19 18 18 17 17 16 16 15 15 15 15 15 15 15 15 15 15 14 13 13 13 12 12
1 3 3 3 3 6 7 8 3 5 7 9 9 6 3 4 6 12 19 18 16 12 10 15 21 20 19 18 18 17 17 16 16 15 15 15 15 15 15 15 15 14 14 13 13 12 11 11 10
2 3 3 2 5 7 7 8 5 4 5 8 10 7 3 4 16 20 18 17 16 12 9 14 20 20 19 18 18 17 17 16 16 16 15 15 15 15 15 15 15 14 13 12 11 10 10 9 9
2 3 2 3 6 7 7 5 2 6 11 10 10 8 3 8 17 17 17 15 15 14 11 13 20 20 19 18 18 17 17 16 16 16 15 15 15 14 14 14 14 13 12 11 10 9 8 8 7
3 2 3 4 5 6 5 2 3 7 10 9 10 8 4 8 13 15 15 15 13 13 11 9 11 15 18 19 18 17 17 16 16 16 16 15 15 14 14 13 13 12 11 10 9 8 7 6 5
5 2 2 3 4 5 4 2 4 8 8 10 9 10 9 11 14 15 14 13 12 11 10 9 8 8 9 11 17 17 17 16 16 16 16 15 15 14 13 12 11 11 10 9 8 6 5 4 4
2 2 4 5 4 4 4 2 3 5 8 4 4 7 12 18 18 16 14 11 11 12 9 9 9 8 8 8 13 14 16 15 14 13 16 13 6 6 8 10 11 11 9 8 7 5 4 3 2
5 4 9 8 6 5 5 4 5 5 7 4 5 7 14 18 19 18 17 16 15 15 12 10 10 10 9 9 8 6 7 7 6 5 7 5 4 4 7 9 11 10 8 7 5 4 2 2 1
5 7 9 10 10 6 4 3 5 10 4 8 12 14 15 15 16 16 16 16 16 16 14 12 11 11 9 6 6 4 4 4 4 5 5 4 4 3 3 2 4 4 4 2 2 1 1 0 1
5 10 10 10 8 4 4 4 4 6 9 13 17 18 16 15 15 15 16 15 15 15 14 14 13 10 8 7 6 5 5 4 4 5 6 4 3 3 3 2 2 2 1 1 1 1 0 0 1
7 10 11 11 8 4 2 3 5 4 8 13 15 16 16 15 13 11 12 14 15 14 14 15 13 12 10 8 7 7 6 5 5 5 5 5 5 4 4 3 2 2 2 2 2 1 1 1 1
7 8 10 9 6 4 2 2 4 5 12 14 15 13 12 13 12 10 12 13 14 15 15 13 14 12 11 9 7 7 6 6 5 5 6 7 5 5 4 3 3 2 2 2 2 2 2 1 1
4 7 10 7 4 3 2 2 3 7 13 13 13 11 8 8 9 11 14 14 14 14 14 14 14 13 13 10 8 7 6 6 6 5 6 7 7 6 5 4 3 3 2 2 2 2 2 2 2
5 4 5 8 3 4 4 4 6 6 12 12 12 11 8 8 9 10 12 12 11 12 13 14 13 13 12 9 7 6 6 6 5 5 5 7 7 7 5 4 3 3 2 2 2 2 2 2 2
4 2 6 9 5 2 3 4 4 6 11 11 11 11 11 10 9 9 11 13 12 12 13 13 11 12 11 9 6 6 5 5 5 5 5 5 7 7 5 4 3 3 3 2 2 2 2 2 2
5 4 6 8 6 2 1 3 4 5 9 10 11 11 11 11 11 10 11 11 10 11 12 12 11 11 10 7 5 4 5 4 4 5 5 6 5 6 5 4 4 4 3 2 2 2 2 2 2
7 8 11 12 7 1 2 3 5 5 5 8 8 9 9 9 8 9 10 11 10 10 11 11 11 10 9 7 6 5 5 5 4 4 6 6 6 6 5 4 4 4 3 3 4 2 2 1 2
10 11 11 9 4 1 3 2 2 3 5 8 10 10 10 8 7 9 9 10 10 11 11 11 11 11 10 8 6 4 4 4 4 4 5 6 6 6 6 5 4 4 3 3 3 3 2 1 2
12 9 8 6 3 4 3 2 2 1 2 5 7 7 9 12 12 11 11 10 10 11 11 11 11 11 10 9 6 5 3 3 3 4 4 5 6 6 5 6 5 4 4 4 3 3 4 2 0
11 11 7 3 1 2 1 1 4 2 1 2 5 7 7 8 10 10 10 10 10 9 9 9 10 10 9 9 9 9 7 6 5 5 4 5 6 6 6 6 6 5 4 4 4 3 3 3 2
10 10 5 1 2 2 4 2 6 3 1 2 4 6 7 8 10 10 10 10 9 9 8 8 8 9 10 10 10 9 6 5 4 4 6 5 5 6 6 6 5 5 4 4 4 4 3 3 3
7 2 5 6 6 3 3 1 5 4 5 4 2 3 5 7 8 8 8 8 7 7 7 8 8 8 9 10 10 10 9 8 8 7 7 6 4 4 6 6 5 5 4 4 4 4 4 3 3
1 5 5 5 5 4 4 1 6 6 4 4 4 3 4 7 8 9 9 9 9 9 9 8 9 9 9 10 10 10 11 11 10 9 8 7 5 4 6 6 5 4 5 5 4 4 4 4 3
4 10 8 5 4 4 3 2 6 5 2 2 3 5 5 6 6 8 10 10 10 10 9 9 9 9 9 10 10 9 9 7 7 8 7 7 6 6 7 6 6 5 5 5 4 3 3 3 3
5 5 9 8 3 1 3 4 6 2 2 2 3 4 5 6 6 6 7 7 8 8 8 9 9 8 9 9 9 9 9 8 8 7 7 6 5 6 7 7 6 6 5 5 5 3 3 3 3
7 7 6 6 4 1 2 2 4 4 3 2 1 2 3 5 6 6 6 6 6 7 6 7 8 8 8 8 8 8 8 9 8 7 8 7 6 6 7 7 6 6 5 6 5 4 3 4 3
2 3 5 5 6 6 3 6 7 9 8 7 6 6 7 7 7 6 5 5 5 5 6 6 6 6 7 8 7 7 7 8 8 7 7 7 7 7 7 7 7 6 6 5 5 5 5 5 4
5 4 6 5 2 5 5 7 5 5 5 6 6 5 5 6 6 6 5 5 4 4 5 5 5 5 6 6 7 7 7 7 7 7 7 6 7 7 7 7 7 6 6 6 6 6 5 5 5
Wind_Direction
199 202 187 52 48 31 302 268 149 103 79 75 87 94 93 86 131 144 129 137 136 141 145 144 141 138 136 133 130 127 124 122 119 116 115 115 114 114 114 115 115 114 113 112 111 110 109 109 109
198 201 141 47 65 7 298 263 145 130 122 108 89 86 76 65 88 107 120 137 137 139 141 143 141 140 138 136 134 133 130 128 125 122 120 119 118 118 117 117 116 115 115 114 113 112 111 111 111
219 192 81 64 80 213 273 270 181 129 120 109 91 66 74 102 108 117 136 136 133 136 138 145 143 142 140 139 137 136 134 132 129 127 124 123 122 120 120 119 119 117 116 115 114 113 112 111 111
155 63 53 64 265 246 243 256 229 123 108 101 103 76 65 120 123 130 135 138 133 134 138 146 144 143 142 141 140 139 138 136 134 132 129 127 125 123 122 122 121 119 118 116 115 114 112 110 109
87 82 57 330 266 263 255 249 236 143 121 105 103 102 51 60 116 129 138 139 135 137 141 145 145 145 145 144 144 142 140 139 138 135 132 129 128 126 125 124 124 122 121 120 119 118 115 112 108
60 78 86 264 266 276 271 251 166 126 114 113 110 109 77 119 126 135 138 137 139 143 142 146 148 148 147 147 146 145 143 141 139 137 135 133 131 129 128 128 128 127 127 125 124 123 121 115 107
140 130 201 236 275 280 271 230 154 135 133 137 128 109 119 136 137 137 136 136 140 144 142 144 149 150 151 150 149 148 146 144 142 140 139 137 135 134 133 132 132 133 132 132 132 130 125 115 101
166 121 253 247 255 275 261 160 150 141 128 132 131 136 161 162 144 136 135 136 140 143 145 144 144 145 148 150 152 151 149 147 146 145 143 143 142 140 139 137 139 139 140 140 140 137 131 121 108
160 105 244 236 223 255 232 137 96 90 105 113 134 151 156 147 139 136 136 138 145 149 152 150 148 146 145 149 156 153 152 153 151 149 149 144 133 134 140 147 148 148 149 148 147 145 142 128 104
147 190 236 223 224 227 244 177 146 112 98 83 81 106 136 144 146 148 153 156 160 160 163 162 157 155 155 158 145 145 147 147 143 144 140 132 138 150 151 161 157 157 156 154 158 158 143 91 58
188 217 252 261 249 221 226 203 152 134 141 168 155 152 151 150 153 157 162 165 166 165 165 165 164 162 163 150 147 146 140 142 145 148 144 143 144 151 144 150 155 154 155 147 164 146 83 78 119
241 258 260 267 263 221 210 174 128 148 183 172 159 155 156 160 166 167 166 168 166 167 169 166 166 165 163 152 155 153 150 155 160 164 159 150 146 147 150 152 158 156 146 163 162 154 178 239 158
254 266 273 270 269 247 213 180 146 156 151 148 150 153 161 169 173 170 164 162 166 169 169 169 167 166 161 155 162 163 163 168 169 170 169 161 154 157 157 160 164 172 165 164 159 170 168 143 117
259 282 293 283 267 253 205 236 131 172 148 148 149 156 165 172 174 166 163 166 171 171 170 169 168 165 160 163 168 164 169 169 166 170 172 164 158 157 157 157 165 180 178 170 162 155 135 122 115
303 313 309 295 275 247 103 327 203 170 147 146 147 151 162 184 182 179 173 170 171 169 168 169 168 164 164 167 170 164 169 165 167 170 168 162 157 157 157 155 169 185 178 159 133 118 96 95 104
344 333 307 296 290 258 115 249 254 164 144 149 151 151 165 207 197 186 167 163 168 165 166 170 171 164 164 163 163 157 163 159 165 164 162 161 158 156 153 158 172 174 157 142 136 122 101 90 104
352 304 285 293 287 268 137 210 230 167 151 153 158 161 178 193 199 185 169 165 167 166 165 167 165 163 163 160 153 146 148 155 161 158 157 160 159 154 152 160 166 160 141 138 152 115 124 128 125
257 277 285 280 286 257 175 200 199 182 156 161 167 168 176 187 192 181 169 164 162 160 160 164 160 160 156 148 139 132 140 155 159 158 158 159 157 153 148 154 158 150 134 135 128 119 112 138 155
255 274 277 275 277 219 170 196 208 191 166 156 165 171 177 187 177 165 163 161 157 156 159 164 161 160 156 154 157 154 162 168 165 168 160 161 157 154 152 153 153 146 146 156 143 130 118 114 115
259 269 273 280 284 159 173 218 215 172 172 167 164 171 170 169 164 163 161 160 163 164 164 164 168 165 165 166 161 158 156 163 160 162 162 168 161 157 161 154 158 154 143 144 143 133 125 123 125
264 251 251 257 322 35 98 1 328 327 114 139 150 163 167 171 172 170 167 169 166 168 170 171 170 169 169 160 145 138 128 125 141 155 168 174 166 163 160 160 156 156 150 158 161 150 144 149 127
262 259 253 261 51 328 90 204 286 271 341 143 151 156 173 176 171 171 170 169 173 174 169 167 170 171 168 160 159 161 166 168 177 166 168 170 168 162 159 159 158 158 156 162 172 159 153 144 149
239 255 254 221 110 44 11 95 285 330 294 233 195 168 170 172 171 171 171 170 171 166 165 166 167 172 171 170 171 167 169 171 162 156 162 170 170 165 162 162 159 162 163 166 167 151 148 146 151
241 313 20 45 69 32 287 150 276 261 236 251 212 170 167 164 162 161 159 154 158 162 163 166 169 174 175 176 177 174 173 170 167 172 171 173 169 170 171 165 163 166 164 166 168 156 148 150 148
206 89 32 2 15 264 269 204 248 258 235 198 194 179 172 160 157 157 155 159 163 168 172 175 177 179 181 181 181 181 179 176 179 178 176 171 170 177 184 174 168 168 169 167 161 152 156 161 159
200 141 155 187 214 262 319 251 266 269 230 156 152 148 148 155 162 168 168 169 171 175 177 179 182 182 180 181 181 179 179 179 182 180 176 179 181 183 179 175 174 173 170 168 159 154 170 169 174
176 181 171 142 155 113 292 298 307 331 32 61 107 127 150 160 166 173 172 170 171 176 181 183 183 182 182 181 177 178 181 182 182 180 180 179 180 180 176 175 175 175 171 169 163 172 187 176 183
168 159 101 115 145 188 278 269 253 239 221 187 156 152 168 154 159 163 166 165 167 170 175 179 183 186 182 176 178 181 180 181 180 176 179 180 182 179 173 175 177 177 177 175 170 175 184 178 192
79 87 107 122 146 149 193 257 232 208 192 179 183 173 163 153 157 162 165 163 162 162 165 172 177 176 177 174 170 172 174 177 178 181 182 180 178 173 176 178 178 180 182 180 179 190 186 190 205
130 146 131 139 198 154 158 258 265 195 176 162 157 149 136 142 149 148 141 134 136 149 160 165 169 167 168 163 161 169 169 170 176 182 179 174 174 174 175 176 179 187 188 185 188 200 199 197 205